This is the latest recevied weather packets stored in our database for station/object OK2ZAW-19. If no packets are shown the sender has not sent any weather packets the latest 10 day(s).
| Time | Temp. | Humidity | Pressure | Rain* | Wind** | Luminosity | Snow |
|---|---|---|---|---|---|---|---|
| 1777818165 | 26.11° C | 29% | 1016.6 hPa | - | - | 338 W/m² | - |
| 1777817853 | 25.56° C | 29% | 1016.6 hPa | - | - | 337 W/m² | - |
| 1777817541 | 25.56° C | 29% | 1016.7 hPa | - | - | 337 W/m² | - |
| 1777817229 | 25.56° C | 30% | 1016.8 hPa | - | - | 337 W/m² | - |
| 1777816605 | 25.56° C | 30% | 1016.8 hPa | - | - | 337 W/m² | - |
| 1777816293 | 25° C | 31% | 1016.9 hPa | - | - | 338 W/m² | - |
| 1777815668 | 25° C | 31% | 1017 hPa | - | - | 336 W/m² | - |
| 1777814420 | 24.44° C | 32% | 1017.3 hPa | - | - | 337 W/m² | - |
| 1777814108 | 24.44° C | 32% | 1017.3 hPa | - | - | 337 W/m² | - |
| 1777813796 | 23.89° C | 34% | 1017.5 hPa | - | - | 337 W/m² | - |
| 1777813484 | 23.33° C | 34% | 1017.4 hPa | - | - | 336 W/m² | - |
| 1777813173 | 23.33° C | 35% | 1017.5 hPa | - | - | 337 W/m² | - |
| 1777812861 | 22.78° C | 36% | 1017.5 hPa | - | - | 337 W/m² | - |
| 1777812549 | 22.22° C | 36% | 1017.6 hPa | - | - | 337 W/m² | - |
| 1777812237 | 22.22° C | 36% | 1017.7 hPa | - | - | 337 W/m² | - |
| 1777811925 | 22.22° C | 34% | 1017.7 hPa | - | - | 337 W/m² | - |
| 1777811614 | 22.78° C | 36% | 1017.6 hPa | - | - | 337 W/m² | - |
| 1777811302 | 22.78° C | 37% | 1017.8 hPa | - | - | 336 W/m² | - |
| 1777810990 | 22.22° C | 38% | 1017.9 hPa | - | - | 337 W/m² | - |
| 1777810678 | 21.67° C | 38% | 1017.9 hPa | - | - | 337 W/m² | - |
| 1777810367 | 21.67° C | 36% | 1018 hPa | - | - | 337 W/m² | - |
| 1777810055 | 21.67° C | 37% | 1017.9 hPa | - | - | 337 W/m² | - |
| 1777809743 | 22.22° C | 36% | 1018.1 hPa | - | - | 337 W/m² | - |
| 1777809432 | 22.22° C | 39% | 1018.1 hPa | - | - | 337 W/m² | - |
| 1777809120 | 22.22° C | 40% | 1018.2 hPa | - | - | 336 W/m² | - |
* Rain since midnight (hover to see other rain measurements)
** Current wind speed in m/s (hover to see current wind gust speed)